Location: *
(44.3683°N, 6.6958°E)
Time: 07:38:40
(UTC+00:00)

Ariane Rocket - Pass Details

Date: 14 October 2019
Orbit: 760 x 770 km, 98.8° (Epoch: 12 November)

Event Time Altitude Azimuth Distance (km) Brightness Sun altitude
Rises 18:33:42 0° 166° (SSE) 3,223 6.0 -19.0°
Reaches altitude 10° 18:35:59 10° 167° (SSE) 2,303 5.3 -19.4°
Maximum altitude 18:41:04 85° 255° (WSW) 779 3.0 -20.3°
Drops below altitude 10° 18:46:13 10° 345° (NNW) 2,323 5.8 -21.2°
Sets 18:48:32 0° 346° (NNW) 3,254 6.6 -21.7°
